Београд, метеограме

Београд: време по сату
Петак, 23 Октобра
Време Падавине Температура Осећа се Притисак Влажност Ветар
04:00 0 мм +10.4° +10.1° 757.000 мм.ж.с 65% 1 м/с, Ј
05:00 0 мм +10.4° +10.2° 757.000 мм.ж.с 65% 1 м/с, Ј
06:00 0 мм +10.5° +10.3° 757.000 мм.ж.с 65% 1 м/с, Ј
07:00 0 мм +10.6° +10.4° 756.000 мм.ж.с 66% 1 м/с, Ј
08:00 0 мм +12.7° +12.4° 756.000 мм.ж.с 59% 1 м/с, Ј
09:00 0 мм +14.9° +14.5° 756.000 мм.ж.с 52% 1 м/с, Ј
10:00 0 мм +17.1° +16.5° 756.000 мм.ж.с 45% 1 м/с, ЈЗ
11:00 0 мм +18.4° +17.7° 756.000 мм.ж.с 42% 1 м/с, ЈЗ
12:00 0 мм +19.6° +18.8° 755.000 мм.ж.с 38% 1 м/с, ЈЗ
13:00 0 мм +20.9° +20° 755.000 мм.ж.с 35% 1 м/с, ЈЗ
14:00 0 мм +20.2° +19.4° 754.000 мм.ж.с 38% 1 м/с, Ј
15:00 0 мм +19.5° +18.8° 754.000 мм.ж.с 40% 0 м/с, Ј
16:00 0 мм +18.8° +18.2° 754.000 мм.ж.с 43% 0 м/с, ЈИ
17:00 0 мм +17.8° +17.2° 754.000 мм.ж.с 45% 1 м/с, ЈИ
18:00 0 мм +16.8° +16.2° 754.000 мм.ж.с 46% 1 м/с, ЈИ
19:00 0 мм +15.7° +15.2° 754.000 мм.ж.с 48% 1 м/с, ЈИ
20:00 0 мм +15.4° +14.9° 754.000 мм.ж.с 49% 1 м/с, ЈИ
21:00 0 мм +15.1° +14.6° 754.000 мм.ж.с 50% 1 м/с, ЈИ
22:00 0 мм +14.8° +14.3° 754.000 мм.ж.с 51% 1 м/с, ЈИ
23:00 0 мм +14.5° +14° 754.000 мм.ж.с 52% 1 м/с, ЈИ
Субота, 24 Октобра
Време Падавине Температура Осећа се Притисак Влажност Ветар
00:00 0 мм +14.2° +13.8° 754.000 мм.ж.с 53% 1 м/с, Ј
01:00 0 мм +14° +13.6° 754.000 мм.ж.с 54% 1 м/с, З
02:00 0 мм +13.8° +13.5° 754.000 мм.ж.с 55% 1 м/с, З
03:00 0 мм +13.7° +13.3° 754.000 мм.ж.с 56% 1 м/с, З
04:00 0 мм +13.6° +13.2° 754.000 мм.ж.с 57% 1 м/с, З
05:00 0 мм +13.9° +13.6° 754.000 мм.ж.с 57% 1 м/с, ЈЗ
06:00 0 мм +14.2° +13.9° 754.000 мм.ж.с 56% 1 м/с, ЈЗ
07:00 0 мм +14.5° +14.2° 754.000 мм.ж.с 56% 1 м/с, ЈЗ
08:00 0.21 мм +14.7° +14.6° 755.000 мм.ж.с 60% 2 м/с, З
09:00 0.21 мм +14.9° +14.9° 755.000 мм.ж.с 64% 3 м/с, З
10:00 0.21 мм +15.1° +15.3° 755.000 мм.ж.с 68% 3 м/с, З
11:00 0.59 мм +14.9° +15.3° 755.000 мм.ж.с 73% 3 м/с, З
12:00 0.59 мм +14.7° +15.2° 755.000 мм.ж.с 78% 2 м/с, З
13:00 0.59 мм +14.5° +15.3° 755.000 мм.ж.с 84% 2 м/с, З
14:00 0.19 мм +14.4° +15.2° 755.000 мм.ж.с 85% 2 м/с, З
15:00 0.19 мм +14.3° +15.1° 754.000 мм.ж.с 87% 2 м/с, З
16:00 0.19 мм +14.1° +15° 754.000 мм.ж.с 88% 2 м/с, З
17:00 0.01 мм +13.9° +14.8° 754.000 мм.ж.с 89% 1 м/с, З
18:00 0.01 мм +13.7° +14.6° 755.000 мм.ж.с 90% 1 м/с, З
19:00 0.01 мм +13.5° +14.3° 755.000 мм.ж.с 90% 1 м/с, З
20:00 0.01 мм +13.4° +14.2° 755.000 мм.ж.с 90% 1 м/с, З
21:00 0.01 мм +13.3° +14.2° 755.000 мм.ж.с 90% 1 м/с, СЗ
22:00 0.01 мм +13.3° +14.1° 755.000 мм.ж.с 90% 1 м/с, СЗ
23:00 0.04 мм +13.2° +14° 755.000 мм.ж.с 90% 1 м/с, СЗ
Недеља, 25 Октобра
Време Падавине Температура Осећа се Притисак Влажност Ветар
00:00 0.04 мм +13.1° +14° 754.000 мм.ж.с 90% 1 м/с, СЗ
01:00 0.04 мм +13.1° +13.8° 754.000 мм.ж.с 89% 1 м/с, СЗ
02:00 0.19 мм +13° +13.8° 754.000 мм.ж.с 91% 1 м/с, СЗ
03:00 0.19 мм +12.8° +13.7° 754.000 мм.ж.с 92% 1 м/с, СЗ

Такође

Meteograms hourly weather Мапе времена Преглед времена
Meteograms hourly weather Мапе времена Преглед времена
 
Време у Србији:
О проjекту
© meteoprog.rs 2003-2020.
Meteoprog.ua - погода в Украине 0.0489
sitemap